Date String (YYYY-MM-DD hh:mm:ss) UTC,Instrument flags,Ambient pressure (hPa),Sample flow (lpm),Bypass flow (lpm),Sample temperature (°C),Ambient temperature (°C),ASC tube jacket temperature (°C),LED temperature (°C),Box temperature (°C),Sample RH (%),Span deviation,Mass concentration (μg/m³),Mass concentration (μg/m³),Mass concentration (μg/m³)
DateTimeUTC,F1_M11,P_M11,Q1_M11,Q2_M11,T1_M11,T2_M11,T3_M11,T4_M11,T5_M11,U1_M11,ZSPAN_M11,X2_M11,X0_M11,X1_M11
2021-10-29 19:00:00,,0827.7,4.99,0.00,30.4,29.7,00.0,39.3,32.2,09.9,0000.0,0002.26,0011.62,0000.95
2021-10-29 19:01:00,,0827.8,4.99,0.00,30.4,29.7,00.0,39.3,32.2,09.9,0000.0,0002.10,0011.13,0000.92
2021-10-29 19:02:00,,0827.7,4.99,0.00,30.4,29.7,00.0,39.3,32.2,09.8,0000.0,0001.89,0010.76,0000.89
2021-10-29 19:03:00,,0827.8,5.00,0.00,30.4,29.7,00.0,39.3,32.2,09.8,0000.0,0001.83,0010.60,0000.85
2021-10-29 19:04:00,,0827.6,5.00,0.00,30.4,29.7,00.0,39.3,32.2,09.8,0000.0,0001.82,0009.27,0000.83
2021-10-29 19:05:00,,0827.6,4.99,0.00,30.4,29.7,00.0,39.4,32.2,09.8,0000.0,0001.65,0007.68,0000.79
2021-10-29 19:06:00,,0827.6,5.00,0.00,30.4,29.7,00.0,39.4,32.2,09.9,0000.0,0001.56,0007.14,0000.76
2021-10-29 19:07:00,,0827.6,5.00,0.00,30.5,29.8,00.0,39.4,32.2,09.8,0000.0,0001.54,0007.06,0000.74
2021-10-29 19:08:00,,0827.5,5.00,0.00,30.5,29.8,00.0,39.4,32.3,09.7,0000.0,0001.50,0006.89,0000.72
2021-10-29 19:09:00,,0827.5,5.00,0.00,30.5,29.8,00.0,39.4,32.3,09.5,0000.0,0001.43,0005.79,0000.70
2021-10-29 19:10:00,,0827.5,4.99,0.00,30.5,29.8,00.0,39.4,32.3,09.5,0000.0,0001.36,0004.84,0000.69
2021-10-29 19:11:00,,0827.5,5.00,0.00,30.5,29.8,00.0,39.4,32.3,09.6,0000.0,0001.34,0005.10,0000.68
2021-10-29 19:12:00,,0827.5,5.00,0.00,30.5,29.8,00.0,39.5,32.3,09.7,0000.0,0001.28,0005.20,0000.66
2021-10-29 19:13:00,,0827.4,5.01,0.00,30.5,29.8,00.0,39.5,32.3,09.5,0000.0,0001.29,0004.95,0000.65
2021-10-29 19:14:00,,0827.4,4.99,0.00,30.5,29.8,00.0,39.5,32.3,09.7,0000.0,0001.27,0004.84,0000.64
2021-10-29 19:15:00,,0827.4,5.01,0.00,30.6,29.8,00.0,39.5,32.3,09.7,0000.0,0001.22,0004.71,0000.63
2021-10-29 19:16:00,,0827.4,4.98,0.00,30.6,29.8,00.0,39.5,32.4,09.5,0000.0,0001.22,0004.71,0000.63
2021-10-29 19:17:00,,0827.4,5.00,0.00,30.6,29.8,00.0,39.5,32.4,09.6,0000.0,0001.19,0004.73,0000.63
2021-10-29 19:18:00,,0827.4,5.00,0.00,30.6,29.9,00.0,39.5,32.3,09.8,0000.0,0001.19,0004.77,0000.63
2021-10-29 19:19:00,,0827.4,5.00,0.00,30.6,29.9,00.0,39.5,32.4,09.7,0000.0,0001.20,0004.86,0000.63
2021-10-29 19:20:00,,0827.4,5.01,0.00,30.6,29.9,00.0,39.6,32.4,09.7,0000.0,0001.21,0004.58,0000.64
2021-10-29 19:21:00,,0827.4,5.01,0.00,30.6,29.9,00.0,39.6,32.4,09.6,0000.0,0001.26,0004.59,0000.65
2021-10-29 19:22:00,,0827.3,4.99,0.00,30.6,29.9,00.0,39.6,32.4,09.6,0000.0,0001.30,0004.64,0000.65
2021-10-29 19:23:00,,0827.3,5.01,0.00,30.6,29.9,00.0,39.6,32.4,09.6,0000.0,0001.31,0004.63,0000.66
2021-10-29 19:24:00,,0827.2,5.00,0.00,30.7,29.9,00.0,39.6,32.4,09.6,0000.0,0001.30,0005.07,0000.65
2021-10-29 19:25:00,,0827.2,5.00,0.00,30.7,29.0,00.0,39.6,32.3,09.6,0000.0,0001.29,0005.02,0000.65
2021-10-29 19:26:00,,0827.2,5.00,0.00,30.5,27.1,00.0,39.6,31.9,09.6,0000.0,0001.28,0004.94,0000.65
2021-10-29 19:27:00,,0827.2,5.00,0.00,30.4,26.9,00.0,39.6,31.8,09.8,0000.0,0001.29,0004.98,0000.65
2021-10-29 19:28:00,,0827.2,4.99,0.00,30.4,27.2,00.0,39.5,31.8,09.8,0000.0,0001.31,0005.07,0000.66
2021-10-29 19:29:00,,0827.2,5.00,0.00,30.3,27.6,00.0,39.4,31.7,09.8,0000.0,0001.29,0004.82,0000.67
2021-10-29 19:30:00,,0827.1,5.01,0.00,30.3,28.0,00.0,39.4,31.8,09.9,0000.0,0001.27,0004.68,0000.67
2021-10-29 19:31:00,,0827.2,4.99,0.00,30.2,28.3,00.0,39.4,31.8,09.9,0000.0,0001.26,0004.16,0000.68
2021-10-29 19:32:00,,0827.1,5.00,0.00,30.3,28.6,00.0,39.3,31.9,09.9,0000.0,0001.23,0004.47,0000.69
2021-10-29 19:33:00,,0827.1,5.01,0.00,30.3,28.8,00.0,39.3,31.9,09.9,0000.0,0001.20,0004.85,0000.70
2021-10-29 19:34:00,,0827.4,5.00,0.00,30.3,29.0,00.0,39.3,32.0,09.9,0000.0,0001.21,0004.86,0000.70
2021-10-29 19:35:00,,0827.0,5.00,0.00,30.3,29.1,00.0,39.3,32.0,09.9,0000.0,0001.24,0005.28,0000.72
2021-10-29 19:36:00,,0827.1,5.00,0.00,30.3,29.2,00.0,39.3,32.0,09.9,0000.0,0001.29,0007.70,0000.74
2021-10-29 19:37:00,,0827.1,5.01,0.00,30.3,29.3,00.0,39.3,32.1,09.8,0000.0,0001.34,0007.87,0000.75
2021-10-29 19:38:00,,0827.0,4.99,0.00,30.4,29.4,00.0,39.3,32.1,09.8,0000.0,0001.34,0007.86,0000.75
2021-10-29 19:39:00,,0827.0,5.00,0.00,30.4,29.4,00.0,39.3,32.1,09.8,0000.0,0001.35,0008.00,0000.75
2021-10-29 19:40:00,,0827.2,5.00,0.00,30.4,29.5,00.0,39.4,32.2,09.7,0000.0,0001.40,0008.13,0000.75
2021-10-29 19:41:00,,0827.1,4.99,0.00,30.4,29.6,00.0,39.4,32.2,09.3,0000.0,0001.39,0008.03,0000.75
2021-10-29 19:42:00,,0827.0,5.00,0.00,30.5,29.6,00.0,39.4,32.2,09.3,0000.0,0001.36,0008.08,0000.73
2021-10-29 19:43:00,,0827.0,5.00,0.00,30.5,29.6,00.0,39.4,32.2,09.4,0000.0,0001.37,0008.09,0000.72
2021-10-29 19:44:00,,0826.9,5.01,0.00,30.5,29.7,00.0,39.4,32.3,09.7,0000.0,0001.37,0008.20,0000.71
2021-10-29 19:45:00,,0827.0,5.01,0.00,30.5,29.7,00.0,39.4,32.3,09.7,0000.0,0001.36,0008.20,0000.70
2021-10-29 19:46:00,,0826.9,4.99,0.00,30.6,29.8,00.0,39.5,32.3,09.6,0000.0,0001.31,0007.58,0000.68
2021-10-29 19:47:00,,0826.9,4.98,0.00,30.6,29.8,00.0,39.5,32.4,09.6,0000.0,0001.30,0005.24,0000.68
2021-10-29 19:48:00,,0826.9,5.01,0.00,30.6,29.8,00.0,39.5,32.4,09.5,0000.0,0001.34,0005.61,0000.68
2021-10-29 19:49:00,,0826.9,4.99,0.00,30.6,28.4,00.0,39.5,32.1,09.4,0000.0,0001.40,0006.51,0000.68
2021-10-29 19:50:00,,0827.0,5.01,0.00,30.4,26.6,00.0,39.5,31.7,09.5,0000.0,0001.40,0006.76,0000.67
2021-10-29 19:51:00,,0827.1,5.00,0.00,30.3,26.5,00.0,39.4,31.7,09.5,0000.0,0001.34,0007.28,0000.67
2021-10-29 19:52:00,,0826.8,5.00,0.00,30.2,26.9,00.0,39.4,31.6,09.6,0000.0,0001.36,0007.43,0000.67
2021-10-29 19:53:00,,0826.9,5.00,0.00,30.2,27.3,00.0,39.3,31.6,09.6,0000.0,0001.38,0008.05,0000.69
2021-10-29 19:54:00,,0826.8,5.00,0.00,30.1,27.7,00.0,39.3,31.7,09.5,0000.0,0001.37,0008.15,0000.69
2021-10-29 19:55:00,,0826.8,5.01,0.00,30.1,28.1,00.0,39.3,31.7,09.6,0000.0,0001.36,0008.39,0000.69
2021-10-29 19:56:00,,0826.7,5.00,0.00,30.1,28.4,00.0,39.2,31.8,09.4,0000.0,0001.37,0008.20,0000.69
2021-10-29 19:57:00,,0826.8,5.01,0.00,30.2,28.6,00.0,39.2,31.8,09.4,0000.0,0001.37,0008.13,0000.67
2021-10-29 19:58:00,,0826.7,5.00,0.00,30.2,28.8,00.0,39.2,31.9,09.6,0000.0,0001.36,0008.50,0000.65
2021-10-29 19:59:00,,0826.7,4.99,0.00,30.2,29.0,00.0,39.2,31.9,09.6,0000.0,0001.33,0008.32,0000.66
